Regional Weather Roundup
Issued by NWS

Home | Current Version | Previous Version | Text Only | Print | Product List | Glossary Off
Versions: 1 2 3 4 5 6 7 8 9 10 11 12 13 14 15 16 17 18 19 20 21 22 23 24 25 26 27 28 29 30 31 32 33 34 35 36 37 38 39 40 41 42 43 44 45 46 47 48 49 50

000
ASUS43 KIND 211059
RWRIN

WEATHER ROUNDUP FOR INDIANA
NATIONAL WEATHER SERVICE INDIANAPOLIS IN
700 AM EDT THU AUG 21 2014

NOTE: "FAIR" INDICATES FEW OR NO CLOUDS BELOW 12,000 FEET WITH NO
SIGNIFICANT WEATHER AND/OR OBSTRUCTIONS TO VISIBILITY.

* - STATION DOES NOT REPORT WEATHER SUCH AS PRECIPITATION OR FOG.

+ - STATION NOT QUALITY CONTROLLED BY THE NATIONAL WEATHER SERVICE.
    USE DATA WITH CAUTION...ESPECIALLY DEWPOINT AND RELATIVE
    HUMIDITY OBSERVATIONS.

INZ001>003-010>013-019-020-211200-
NORTHWEST INDIANA

CITY           SKY/WX    TMP DP  RH WIND       PRES   REMARKS
GARY /AIRPORT/ LGT RAIN  72  70  94 CALM      29.95F
KNOX *+        CLOUDY    67  65  91 CALM      29.97R
MONTICELLO +   CLOUDY    69  69  98 SE3       29.95F
VALPARAISO     LGT RAIN  69  67  93 SE5       29.97R

$$

LMZ046-743>745-211200-
SOUTHERN LAKE MICHIGAN

STATION/POSITION TIME  TEMP WIND        PRES
                       AIR  DIR/SP/G
                 (UTC) (F)  (DEG/KT/KT) (MB)
MICHIGAN CITY    1000   70  170/ 12/ 15   N/A

$$

INZ004-005-014>016-021>024-211200-
NORTH CENTRAL INDIANA

CITY           SKY/WX    TMP DP  RH WIND       PRES   REMARKS
GOSHEN         PTCLDY    69  66  90 CALM      29.98S
SOUTH BEND     PTCLDY    68  64  87 CALM      29.98R
WARSAW +       LGT RAIN  70  66  88 CALM      29.97F

$$

INZ006>009-017-018-025>027-211200-
NORTHEAST INDIANA

CITY           SKY/WX    TMP DP  RH WIND       PRES   REMARKS
ANGOLA *+      CLEAR     70  61  73 CALM      29.98S
FORT WAYNE     CLOUDY    70  67  90 CALM      29.97F

$$

INZ028-029-035-036-043>045-051>053-211200-
WEST CENTRAL INDIANA

CITY           SKY/WX    TMP DP  RH WIND       PRES   REMARKS
GREENCASTLE +  RAIN      68  64  88 SE6       30.01S
LAFAYETTE      CLOUDY    70  68  93 CALM      29.96F
TERRE HAUTE    PTCLDY    68  65  90 CALM      29.98R

$$

INZ030>032-037>040-046>048-054>057-064-065-211200-
CENTRAL INDIANA

CITY           SKY/WX    TMP DP  RH WIND       PRES   REMARKS
COLUMBUS       MOCLDY    68  68 100 CALM      30.02
FRANKFORT +    MOCLDY   N/A N/A N/A SE5       29.98F
INDIANAPOLIS   NOT AVBL
-EAGLE CREEK   CLOUDY    71  67  87 W3        29.99S
KOKOMO *+      MOCLDY    68  66  94 S5        29.97F
MT COMFORT *+  PTCLDY    66 N/A N/A S3        30.01S
SHELBYVILLE    TSTM      70  32  24 NW3       30.03R

$$

INZ033-034-041-042-049-050-058-059-211200-
EAST CENTRAL INDIANA

CITY           SKY/WX    TMP DP  RH WIND       PRES   REMARKS
MUNCIE         MOCLDY    70  66  87 SW5       30.00F

$$

INZ060-061-067>069-081>083-085>088-211200-
SOUTHWEST INDIANA

CITY           SKY/WX    TMP DP  RH WIND       PRES   REMARKS
EVANSVILLE     MOCLDY    73  70  90 CALM      30.01S

$$

INZ062-063-066-070>080-084-089>092-211200-
SOUTH CENTRAL AND SOUTHEAST INDIANA

CITY           SKY/WX    TMP DP  RH WIND       PRES   REMARKS
BLOOMINGTON    PTCLDY    71  67  87 S5        30.00S

$$




USA.gov is the U.S. government's official web portal to all federal, state and local government web resources and services.